Regional Weather Roundup
Issued by NWS Little Rock, AR

Home | Current Version | Previous Version | Graphics & Text | Print | Product List | Glossary On
Versions: 1 2 3 4 5 6 7 8 9 10 11 12 13 14 15 16 17 18 19 20 21 22 23 24 25 26 27 28 29 30 31 32 33 34 35 36 37 38 39 40 41 42 43 44 45 46 47 48 49 50
000
ASUS44 KLZK 270605
RWRLZK

WEATHER ROUNDUP FOR ARKANSAS
NATIONAL WEATHER SERVICE LITTLE ROCK AR
1200 AM CST THU NOV 27 2014

NOTE: "FAIR" INDICATES FEW OR NO CLOUDS BELOW 12,000 FEET WITH NO
SIGNIFICANT WEATHER AND/OR OBSTRUCTIONS TO VISIBILITY.

ARZ001-003-010-029-270700-
NORTHWEST ARKANSAS

CITY           SKY/WX    TMP DP  RH WIND       PRES   REMARKS
FAYETTEVILLE   CLEAR     31  24  75 N12       30.35R WCI  22
6HR MIN TEMP:  31; 6HR MAX TEMP:  43;

FORT SMITH     CLEAR     39  25  57 NW9       30.39R
6HR MIN TEMP:  39; 6HR MAX TEMP:  51;

HARRISON       CLOUDY    34  26  72 NW15G22   30.29R WCI  24
6HR MIN TEMP:  34; 6HR MAX TEMP:  42;

BENTONVILLE    PTCLDY    32  21  64 N10G18    30.36R WCI  24
6HR MIN TEMP:  32; 6HR MAX TEMP:  43;

ROGERS         CLOUDY    32  25  75 NW15      30.36R WCI  22
6HR MIN TEMP:  31; 6HR MAX TEMP:  42;

SILOAM SPGS    CLEAR     30  19  64 N14G21    30.37S WCI  20
6HR MIN TEMP:  30; 6HR MAX TEMP:  43;

HIGHFILL       CLEAR     31  24  75 NW12      30.36R WCI  22
6HR MIN TEMP:  31; 6HR MAX TEMP:  42;

$$

ARZ004-005-016-270700-
NORTH CENTRAL ARKANSAS

CITY           SKY/WX    TMP DP  RH WIND       PRES   REMARKS
BATESVILLE     CLEAR     41  27  56 W9G20     30.25R
6HR MIN TEMP:  41; 6HR MAX TEMP:  48;

FLIPPIN        CLOUDY    37  25  60 NW13      30.29R
6HR MIN TEMP:  37; 6HR MAX TEMP:  45;

MTN HOME       CLOUDY    36  26  67 VRB6G21   30.28R
6HR MIN TEMP:  36; 6HR MAX TEMP:  44;

$$

ARZ040-041-270700-
WEST CENTRAL ARKANSAS

CITY           SKY/WX    TMP DP  RH WIND       PRES   REMARKS
MENA           CLEAR     43  28  56 NW8       30.33S
MOUNT IDA      CLEAR     42  26  53 NW5       30.29R
6HR MIN TEMP:  42; 6HR MAX TEMP:  48;

$$

ARZ009-017-025-026-028-270700-
NORTHEAST ARKANSAS

CITY           SKY/WX    TMP DP  RH WIND       PRES   REMARKS
CORNING        CLOUDY    41  32  70 NW22      30.23R
JONESBORO      CLEAR     41  29  62 NW12      30.21R
6HR MIN TEMP:  36; 6HR MAX TEMP:  45;

NEWPORT        CLEAR     40  29  65 NW13      30.26R
6HR MIN TEMP:  40; 6HR MAX TEMP:  47;

WALNUT RIDGE   PTCLDY    39  27  60 NW21G28   30.23R
6HR MIN TEMP:  34; 6HR MAX TEMP:  43;

BLYTHEVILLE    CLOUDY    43  34  70 W7        30.19R
6HR MIN TEMP:  43; 6HR MAX TEMP:  48; 6HR PCP: TRACE;

$$

ARZ022-023-033-042-044-270700-
CENTRAL ARKANSAS

CITY           SKY/WX    TMP DP  RH WIND       PRES   REMARKS
LITTLE ROCK    CLEAR     46  25  43 NW14G22   30.29R
6HR MIN TEMP:  45; 6HR MAX TEMP:  54;

N LITTLE ROCK  CLEAR     42  29  59 W6        30.29R
6HR MIN TEMP:  42; 6HR MAX TEMP:  52;

JACKSONVILLE   CLEAR     41  27  57 W8        30.28R
6HR MIN TEMP:  35; 6HR MAX TEMP:  51;

SEARCY         CLEAR     41  28  60 NW7       30.28R
6HR MIN TEMP:  31; 6HR MAX TEMP:  48;

HOT SPRINGS    CLEAR     44  26  49 NW6       30.30R
6HR MIN TEMP:  44; 6HR MAX TEMP:  52;

RUSSELLVILLE   CLEAR     41  26  55 NW8       30.31R
6HR MIN TEMP:  41; 6HR MAX TEMP:  51;

CLINTON        FAIR      39  27  60 NW7G18    30.30R
$$

ARZ036-270700-
EAST ARKANSAS

CITY           SKY/WX    TMP DP  RH WIND       PRES   REMARKS
WEST MEMPHIS   CLEAR     42  30  62 NW8       30.21R
6HR MIN TEMP:  38; 6HR MAX TEMP:  44;

$$

ARZ050-053-066-070-073-270700-
SOUTHWEST ARKANSAS

CITY           SKY/WX    TMP DP  RH WIND       PRES   REMARKS
ARKADELPHIA    FAIR      44  29  56 W8        30.33R
6HR MIN TEMP:  38; 6HR MAX TEMP:  51;

CAMDEN         CLEAR     39  32  75 CALM      30.33R
TEXARKANA      CLEAR     45  30  55 NW9       30.34R
6HR MIN TEMP:  45; 6HR MAX TEMP:  54;

EL DORADO      CLEAR     43  33  68 NW6       30.32R
6HR MIN TEMP:  38; 6HR MAX TEMP:  54;

DE QUEEN       CLEAR     42  27  55 W6        30.34R
6HR MIN TEMP:  39; 6HR MAX TEMP:  50;

$$

ARZ056-057-069-270700-
SOUTHEAST ARKANSAS

CITY           SKY/WX    TMP DP  RH WIND       PRES   REMARKS
PINE BLUFF     CLEAR     44  28  53 W9        30.29R
6HR MIN TEMP:  44; 6HR MAX TEMP:  54;

STUTTGART      CLEAR     45  28  53 NW17      30.27R
6HR MIN TEMP:  41; 6HR MAX TEMP:  48;

MONTICELLO     CLEAR     47  30  51 NW8       30.28R
6HR MIN TEMP:  47; 6HR MAX TEMP:  53;


$$




USA.gov is the U.S. government's official web portal to all federal, state and local government web resources and services.